Location: B�rgermoos
(47.6500°N, 9.0667°E)
Time: 08:59:17
(UTC+00:00)

A-11 Canister half - Pass Details

Date: 09 August 2021
Orbit: 1526 x 1683 km, 47.3° (Epoch: 20 September)

Event Time Altitude Azimuth Distance (km) Brightness Sun altitude
Rises 09:17:56 0° 240° (WSW) 4,917 11.5 48.2°
Reaches altitude 10° 09:21:05 10° 238° (WSW) 3,938 11.1 48.6°
Maximum altitude 09:31:10 71° 157° (SSE) 1,760 10.9 49.9°
Drops below altitude 10° 09:41:09 10° 76° (ENE) 3,913 11.5 51.1°
Sets 09:44:17 0° 75° (ENE) 4,885 11.9 51.4°
